Weather History for Malmstrom AFB, MT

Change the Weather History Date:

Tuesday, October 2, 2012

  Actual Average (KGTF) Record (KGTF)
Temperature  
Mean Temperature 56 °F 50 °F  
Max Temperature 69 °F 64 °F 86 °F (1943)
Min Temperature 39 °F 37 °F 18 °F (1999)
Degree Days  
Heating Degree Days 10 15  
Month to date heating degree days 30  
Since 1 July heating degree days 437  
Cooling Degree Days 0 0  
Month to date cooling degree days 0  
Year to date cooling degree days 297  
Growing Degree Days 6 (Base 50)    
Moisture  
Dew Point 36 °F    
Average Humidity 49    
Maximum Humidity 89    
Minimum Humidity 24    
Precipitation  
Precipitation 0.00 in 0.04 in 1.39 in (1908)
Month to date precipitation 0.08  
Year to date precipitation 12.83  
Snow  
Snow 0.00 in 0.10 in 2.00 in (1999)
Month to date snowfall 0.2  
Since 1 July snowfall 1.7  
Since 1 September snowfall 1.4  
Snow Depth -    
Sea Level Pressure  
Sea Level Pressure 29.86 in    
Wind  
Wind Speed 18 mph (NNW)    
Max Wind Speed 26 mph    
Max Gust Speed 36 mph    
Visibility 10 miles    
Events Rain    
T = Trace of Precipitation, MM = Missing Value Source: NWS Daily Summary

Daily Weather History Graph

Daily Weather History Graph

Search for Another Location

Airport:

Trip Planner

Search our weather history database for the weather conditions in past years. The results will help you decide how hot, cold, wet, or windy it might be!

Date:

Astronomy

Oct. 02, 2012 Rise Set
Actual Time 7:25 AM MDT 7:01 PM MDT
Civil Twilight 6:55 AM MDT 7:31 PM MDT
Nautical Twilight 6:19 AM MDT 8:07 PM MDT
Astronomical Twilight 5:43 AM MDT 8:43 PM MDT
Moon 8:01 PM MDT (10/2) 10:10 AM MDT (10/2)
Length of Visible Light 12h 36m
Length of Day
11h 35m
Waning Gibbous, 94% of the Moon is Illuminated
Oct 2
Waning Gibbous
Oct 8
Last Quarter
Oct 15
New
Oct 21
First Quarter
Oct 29
Full

Hourly Weather History & Observations

Time (MDT) Temp. Windchill Dew Point Humidity Pressure Visibility Wind Dir Wind Speed Gust Speed Precip Events Conditions
12:56 AM 69.1 °F - 30.9 °F 24% 29.76 in 10.0 mi SSW 25.3 mph 35.7 mph N/A   Clear
1:56 AM 68.0 °F - 32.0 °F 26% 29.76 in 10.0 mi SSW 26.5 mph - N/A   Clear
2:56 AM 66.0 °F - 32.0 °F 28% 29.75 in 10.0 mi SSW 19.6 mph 25.3 mph N/A   Clear
3:56 AM 66.0 °F - 30.9 °F 27% 29.75 in 10.0 mi SSW 20.7 mph 29.9 mph N/A   Clear
4:56 AM 64.0 °F - 32.0 °F 30% 29.76 in 10.0 mi SSW 17.3 mph - N/A   Clear
5:56 AM 62.1 °F - 32.0 °F 32% 29.77 in 10.0 mi SSW 11.5 mph - N/A   Clear
6:56 AM 57.0 °F - 33.1 °F 40% 29.80 in 10.0 mi South 9.2 mph - N/A   Clear
7:56 AM 55.9 °F - 34.0 °F 44% 29.82 in 10.0 mi South 6.9 mph - N/A   Clear
8:56 AM 54.0 °F - 34.0 °F 47% 29.85 in 10.0 mi North 13.8 mph 28.8 mph N/A   Partly Cloudy
9:56 AM 53.1 °F - 36.0 °F 52% 29.87 in 10.0 mi NNE 19.6 mph - N/A   Clear
10:56 AM 55.9 °F - 37.0 °F 49% 29.86 in 10.0 mi NNE 16.1 mph - N/A   Clear
11:56 AM 59.0 °F - 37.0 °F 44% 29.83 in 10.0 mi NNE 11.5 mph - N/A   Overcast
12:56 PM 64.0 °F - 37.0 °F 37% 29.81 in 10.0 mi NE 8.1 mph - N/A   Scattered Clouds
1:56 PM 66.9 °F - 36.0 °F 32% 29.78 in 10.0 mi NNE 10.4 mph - N/A   Clear
2:56 PM 68.0 °F - 36.0 °F 31% 29.77 in 10.0 mi North 10.4 mph - N/A   Clear
3:56 PM 66.9 °F - 36.0 °F 32% 29.76 in 10.0 mi North 13.8 mph - N/A   Mostly Cloudy
4:56 PM 66.9 °F - 35.1 °F 31% 29.77 in 10.0 mi NNE 13.8 mph 19.6 mph N/A   Scattered Clouds
5:56 PM 63.0 °F - 34.0 °F 34% 29.81 in 10.0 mi NNE 13.8 mph - N/A   Mostly Cloudy
6:56 PM 60.1 °F - 34.0 °F 38% 29.86 in 10.0 mi North 21.9 mph - N/A   Overcast
7:56 PM 48.9 °F - 39.0 °F 69% 29.96 in 10.0 mi North 24.2 mph 29.9 mph N/A   Clear
8:56 PM 46.9 °F - 41.0 °F 80% 30.03 in 10.0 mi North 17.3 mph 29.9 mph 0.00 in Rain Light Rain
9:18 PM 46.4 °F 41.9 °F 41.0 °F 81% 29.96 in 10.0 mi NNW 9.2 mph - 0.00 in   Overcast
9:56 PM 46.0 °F 39.9 °F 39.9 °F 79% 30.06 in 10.0 mi North 13.8 mph - 0.00 in   Overcast
10:43 PM 44.6 °F 38.8 °F 39.2 °F 81% 29.96 in 10.0 mi NNW 11.5 mph - N/A   Overcast
10:56 PM 44.1 °F 37.7 °F 39.0 °F 82% 30.07 in 10.0 mi NNW 12.7 mph - N/A   Overcast
11:28 PM 42.8 °F 34.5 °F 37.4 °F 81% 29.98 in 10.0 mi NW 18.4 mph 24.2 mph 0.00 in   Overcast
11:56 PM 39.9 °F 30.5 °F 37.0 °F 89% 30.09 in 8.0 mi NNW 19.6 mph - 0.00 in Rain Light Rain